Simultaneous Nadir Overpasses (SNOs) Predictions

Prediction of SNOs between GOES-16 and METOP-B Satellite Orbit:

Table of predicted SNOs for the next 14.0 days since TLE Epoch: 8/14/2020
Index Date Time (GOES-16) GOES-16 Lat,Lon METOP-B Lat,Lon Distance(km) Time Diff (sec)
1 08/15/2020 02:39:19 0.01, -75.18 -0.35, -76.91 196.88 80
2 08/16/2020 02:15:59 0.01, -75.17 0.73, -71.91 371.52 80
3 08/17/2020 14:37:30 -0.01, -75.17 0.26, -76.47 147.36 80
4 08/18/2020 14:14:10 -0.02, -75.17 -0.82, -71.47 421.21 80
5 08/20/2020 02:35:49 0.01, -75.15 -0.21, -76.06 104.37 80
6 08/21/2020 02:12:29 0.02, -75.15 0.93, -71.07 464.62 80
7 08/22/2020 14:34:01 -0.01, -75.17 0.06, -75.64 53.10 80
8 08/25/2020 02:32:20 0.01, -75.16 -0.01, -75.23 8.32 80
9 08/27/2020 14:27:50 -0.01, -75.18 -0.09, -74.79 44.46 80
